This is the latest recevied weather packets stored in our database for station/object OH7GGX-14. If no packets are shown the sender has not sent any weather packets the latest 10 day(s).
| Time | Temp. | Humidity | Pressure | Rain* | Wind** | Luminosity | Snow |
|---|---|---|---|---|---|---|---|
| 1787921819 | 16.67° C | 60% | 1028.7 hPa | 0 mm | - | - | - |
| 1787921219 | 16.67° C | 62% | 1028.9 hPa | 0 mm | - | - | - |
| 1787920619 | 16.67° C | 59% | 1028.9 hPa | 0 mm | - | - | - |
| 1787920018 | 16.67° C | 62% | 1029 hPa | 0 mm | - | - | - |
| 1787919418 | 16.67° C | 60% | 1029.2 hPa | 0 mm | - | - | - |
| 1787918819 | 16.67° C | 60% | 1029.2 hPa | 0 mm | - | - | - |
| 1787918219 | 16.11° C | 57% | 1029.3 hPa | 0 mm | - | - | - |
| 1787917619 | 16.11° C | 59% | 1029.4 hPa | 0 mm | - | - | - |
| 1787917019 | 16.11° C | 58% | 1029.4 hPa | 0 mm | - | - | - |
| 1787916419 | 16.11° C | 59% | 1029.5 hPa | 0 mm | - | - | - |
| 1787915819 | 16.11° C | 58% | 1029.6 hPa | 0 mm | - | - | - |
| 1787915219 | 16.11° C | 63% | 1029.7 hPa | 0 mm | - | - | - |
| 1787914619 | 16.11° C | 63% | 1029.7 hPa | 0 mm | - | - | - |
| 1787914019 | 16.11° C | 62% | 1029.7 hPa | 0 mm | - | - | - |
| 1787913419 | 16.11° C | 64% | 1029.6 hPa | 0 mm | - | - | - |
| 1787912819 | 15.56° C | 63% | 1029.7 hPa | 0 mm | - | - | - |
| 1787912219 | 15.56° C | 65% | 1029.6 hPa | 0 mm | - | - | - |
| 1787911619 | 15.56° C | 71% | 1029.6 hPa | 0 mm | - | - | - |
| 1787911019 | 15° C | 69% | 1029.6 hPa | 0 mm | - | - | - |
| 1787910419 | 15° C | 71% | 1029.8 hPa | 0 mm | - | - | - |
| 1787909819 | 15° C | 72% | 1029.7 hPa | 0 mm | - | - | - |
| 1787909219 | 14.44° C | 78% | 1029.8 hPa | 0 mm | - | - | - |
| 1787908619 | 14.44° C | 82% | 1029.8 hPa | 0 mm | - | - | - |
| 1787908019 | 14.44° C | 84% | 1029.8 hPa | 0 mm | - | - | - |
| 1787907419 | 13.89° C | 90% | 1029.8 hPa | 0 mm | - | - | - |
* Rain latest hour (hover to see other rain measurements)
** Current wind speed in m/s (hover to see current wind gust speed)